Dewpoint
-1 2 3 3 3 3 3 4 4 5 4 3 3 3 4 4 2 2 3 7 7 8 6 5 7 8 8 8 7 6 6 5 5 4 4 3 2 2 1 0 -2 -8 -10
-1 -3 1 3 2 1 -1 -1 0 1 2 2 2 2 2 2 2 2 6 7 8 8 7 7 8 8 8 6 6 6 6 5 5 4 3 2 2 1 0 -4 -9 -14 -25
5 3 -1 -1 2 2 1 1 1 1 1 1 2 1 2 4 6 7 8 7 8 7 7 8 7 8 8 7 6 6 5 4 4 3 2 2 1 -2 -7 -12 -21 -34 -35
7 7 5 2 -1 -1 0 1 2 1 1 1 2 3 4 5 6 6 8 6 8 9 8 8 8 8 8 7 6 5 5 4 3 2 1 -0 -4 -10 -17 -29 -36 -34 -33
7 7 7 7 5 1 0 0 1 1 1 1 2 2 4 6 7 8 8 6 7 7 6 7 8 7 6 6 5 5 4 3 2 1 0 -5 -11 -19 -35 -36 -35 -35 -35
5 5 6 7 7 7 4 3 2 2 2 3 4 4 7 6 6 7 9 7 8 7 7 8 7 6 6 5 5 4 2 2 0 -1 -6 -14 -24 -36 -36 -36 -36 -35 -28
2 3 5 6 7 7 7 6 6 4 4 5 6 7 8 9 9 9 9 8 8 8 7 7 7 6 4 4 3 2 1 1 -1 -9 -17 -30 -36 -36 -36 -36 -36 -35 -34
1 2 4 5 7 7 7 7 7 7 7 8 8 9 8 9 9 9 8 8 8 7 6 5 5 4 3 3 1 1 -0 -5 -13 -21 -35 -36 -36 -36 -36 -37 -37 -36 -35
1 2 3 5 7 8 8 8 8 9 9 9 9 9 9 8 8 8 8 7 6 6 4 4 3 2 1 1 -0 -2 -9 -16 -28 -36 -37 -36 -36 -36 -37 -37 -37 -35 -32
1 4 5 5 6 7 8 9 9 9 9 8 8 8 8 8 8 8 7 6 5 4 3 2 1 0 -0 -1 -5 -13 -23 -33 -35 -35 -34 -34 -36 -37 -37 -37 -37 -36 -31
3 4 6 8 8 9 9 9 9 8 8 8 8 7 7 7 6 4 4 4 4 3 2 1 -1 -1 -4 -9 -17 -28 -34 -35 -35 -35 -35 -36 -36 -36 -36 -37 -37 -36 -35
7 8 8 9 9 9 9 9 8 8 8 7 7 6 5 4 3 1 1 1 1 1 -0 -2 -4 -6 -12 -21 -30 -34 -35 -35 -34 -33 -28 -32 -35 -36 -36 -36 -36 -36 -36
7 8 9 9 9 9 8 8 8 7 7 6 4 3 2 1 0 -0 -0 -1 -2 -2 -4 -5 -10 -16 -25 -31 -33 -33 -32 -29 -16 -20 -29 -33 -34 -33 -34 -35 -33 -33 -35
9 9 9 9 9 8 7 6 6 5 5 4 3 2 0 -0 -0 -1 -2 -2 -3 -4 -7 -12 -19 -27 -31 -31 -29 -28 -19 -14 -21 -29 -31 -28 -28 -30 -30 -24 -25 -33 -33
8 8 8 8 7 6 6 5 3 3 2 3 2 1 1 -1 -2 -3 -3 -4 -5 -7 -10 -16 -23 -28 -26 -21 -22 -19 -17 -23 -27 -23 -21 -26 -18 -18 -16 -23 -30 -30 -29
7 7 6 6 5 4 4 2 1 1 1 0 0 -0 -1 -2 -3 -4 -5 -5 -6 -6 -8 -11 -16 -16 -16 -17 -16 -17 -21 -23 -16 -13 -14 -13 -14 -14 -18 -24 -28 -25 -25
6 5 4 4 3 2 1 1 1 -1 -1 -2 -3 -4 -4 -5 -6 -6 -6 -7 -7 -8 -11 -20 -18 -14 -13 -13 -16 -17 -16 -13 -14 -14 -14 -15 -15 -17 -22 -24 -24 -20 -20
5 4 3 3 2 1 -1 -2 -3 -3 -4 -5 -6 -5 -6 -6 -6 -7 -8 -9 -10 -11 -10 -11 -12 -12 -13 -13 -14 -14 -15 -15 -16 -16 -16 -16 -16 -18 -22 -21 -20 -18 -18
3 1 -1 -2 -2 -3 -4 -4 -5 -5 -5 -6 -7 -7 -8 -8 -9 -9 -10 -11 -12 -12 -13 -13 -13 -14 -15 -15 -15 -16 -16 -17 -17 -17 -17 -18 -18 -21 -21 -20 -19 -20 -20
-3 -4 -4 -5 -5 -5 -5 -6 -6 -7 -7 -8 -9 -9 -10 -10 -11 -12 -12 -12 -13 -13 -14 -15 -15 -16 -16 -17 -17 -17 -18 -18 -18 -19 -20 -20 -21 -21 -20 -20 -21 -20 -20
-5 -6 -6 -6 -6 -7 -7 -7 -8 -9 -9 -10 -11 -11 -12 -12 -13 -13 -14 -14 -15 -15 -16 -16 -17 -17 -18 -18 -18 -19 -20 -20 -20 -20 -21 -21 -21 -21 -21 -21 -21 -21 -20
-6 -7 -7 -7 -8 -8 -9 -9 -10 -10 -11 -12 -12 -13 -13 -14 -14 -15 -15 -16 -17 -17 -17 -18 -18 -19 -19 -19 -20 -20 -21 -21 -21 -21 -22 -22 -22 -22 -22 -22 -22 -21 -21
-8 -8 -9 -9 -10 -10 -11 -11 -12 -12 -13 -14 -14 -15 -15 -16 -16 -17 -17 -18 -18 -19 -19 -20 -20 -21 -22 -23 -23 -23 -23 -23 -22 -23 -23 -22 -23 -23 -23 -22 -22 -22 -21
-10 -10 -10 -11 -11 -12 -13 -13 -14 -15 -15 -16 -17 -18 -19 -20 -21 -21 -21 -21 -22 -22 -22 -23 -23 -24 -24 -24 -24 -24 -24 -24 -24 -24 -23 -23 -22 -22 -22 -23 -22 -22 -21
-12 -12 -13 -14 -16 -17 -19 -20 -21 -23 -24 -24 -25 -25 -25 -24 -24 -24 -24 -24 -24 -24 -24 -24 -25 -25 -25 -25 -25 -25 -25 -25 -24 -23 -23 -22 -22 -21 -21 -21 -21 -21 -21
-27 -27 -27 -27 -28 -28 -28 -28 -28 -27 -27 -26 -26 -26 -25 -25 -25 -25 -25 -25 -25 -25 -25 -25 -25 -26 -26 -25 -25 -25 -25 -24 -23 -22 -22 -22 -21 -21 -21 -21 -21 -21 -20
Wind_Speed
34 36 37 38 40 42 43 44 46 47 49 49 49 50 46 41 40 39 41 41 40 33 28 33 36 29 26 24 21 23 25 22 22 23 21 22 20 22 27 25 23 24 26
35 36 39 40 40 39 38 37 39 40 40 41 39 35 34 35 36 46 44 47 48 37 31 34 27 25 28 26 24 24 22 25 25 25 22 20 20 23 26 23 23 25 26
40 37 39 42 43 44 44 44 43 41 40 40 36 36 34 38 39 38 33 33 36 29 32 27 26 32 32 28 24 24 25 24 25 23 19 20 22 20 21 22 23 24 23
39 43 42 41 41 42 42 47 47 43 41 39 39 38 39 42 39 34 30 25 24 25 26 27 29 34 33 30 26 24 25 25 22 20 19 19 19 21 22 23 23 24 25
32 38 42 42 41 42 41 43 45 42 46 43 39 39 41 44 38 36 35 28 29 35 35 33 30 33 30 28 24 23 26 24 23 22 19 19 20 21 20 21 24 25 25
29 31 33 36 40 42 41 42 42 42 42 40 40 38 32 43 46 37 30 33 33 34 33 31 32 29 28 27 25 24 23 22 19 19 19 20 20 20 20 21 23 24 21
25 26 28 30 34 37 39 40 42 41 40 42 40 39 35 35 37 33 34 32 34 34 33 30 32 31 28 24 24 23 20 20 18 18 19 19 18 19 20 21 22 24 24
28 27 27 28 30 32 35 36 38 38 39 40 37 34 31 33 37 36 36 36 34 29 29 29 27 26 24 22 21 20 18 16 18 17 16 17 17 18 20 22 23 25 27
32 31 28 27 28 30 30 30 31 29 28 29 31 31 31 31 34 35 34 32 28 28 28 26 24 22 20 20 18 15 15 16 16 16 17 17 18 19 20 21 23 25 27
34 32 30 29 28 27 25 21 20 22 25 26 27 29 31 32 31 30 30 29 30 29 26 23 22 20 18 16 13 14 14 15 15 15 15 15 16 17 18 21 23 24 23
33 30 27 25 23 20 17 18 21 23 24 26 26 27 26 25 27 26 23 25 25 24 21 20 18 14 11 11 13 14 15 15 15 15 15 15 16 16 17 21 21 23 25
23 20 18 16 15 15 16 18 18 19 19 22 24 26 24 25 25 23 22 19 17 17 17 14 11 10 12 13 14 15 15 14 13 14 16 17 17 18 19 20 22 23 25
15 14 12 14 13 13 14 17 21 21 19 23 25 26 27 27 26 24 21 19 17 13 11 9 9 11 12 13 13 12 12 13 16 18 18 19 19 19 20 22 23 26 28
14 16 16 15 13 14 14 13 15 18 21 24 28 29 26 24 24 23 19 14 11 10 8 8 8 8 9 11 12 13 16 19 19 19 18 19 20 20 22 24 27 27 29
12 13 12 9 11 11 12 13 13 14 17 21 25 25 25 23 20 16 14 13 11 7 3 5 7 9 11 14 16 18 20 20 18 19 21 20 22 25 26 26 25 26 27
14 12 10 9 13 12 14 16 16 12 13 13 14 16 17 14 12 10 7 4 4 6 7 9 11 13 15 17 18 19 19 19 21 24 24 25 25 25 25 25 25 23 24
10 10 11 13 14 17 20 20 20 17 16 14 12 11 8 10 7 4 5 7 7 8 9 11 12 15 17 18 17 17 20 23 23 24 24 25 24 24 24 24 23 21 22
13 13 18 18 19 20 19 18 16 16 19 18 14 9 6 3 3 5 7 8 9 10 11 12 12 13 14 15 17 18 19 21 22 23 24 24 24 24 24 23 20 20 20
11 16 16 16 17 17 18 18 17 15 14 12 9 4 1 2 3 4 4 5 6 8 10 11 12 13 14 16 17 19 21 22 23 24 25 25 24 24 23 23 22 22 24
19 19 22 24 24 22 19 15 13 11 10 9 7 4 1 1 2 4 5 6 7 9 10 10 12 13 15 17 19 21 22 23 23 22 20 20 21 21 22 21 19 19 19
26 23 23 22 19 16 15 13 12 10 9 7 6 4 4 4 4 4 6 7 8 9 10 11 13 14 16 18 20 21 22 24 25 25 24 22 21 22 21 19 18 18 18
21 20 18 18 16 14 13 12 11 9 9 8 6 5 4 3 3 5 6 7 8 10 12 14 16 18 21 24 26 27 28 28 27 26 24 23 22 19 18 18 18 18 18
18 17 17 16 14 13 11 11 9 8 7 5 3 1 1 2 3 5 7 9 11 13 16 18 20 22 24 25 26 27 28 28 26 25 23 21 18 17 17 18 18 18 17
16 15 14 14 12 11 10 9 7 6 4 3 2 2 3 5 6 8 9 11 14 16 18 19 21 22 24 25 25 26 26 25 24 23 21 21 21 21 20 19 18 19 20
13 12 11 11 10 10 8 6 5 5 4 3 4 4 5 6 8 9 11 13 14 16 18 19 20 21 22 22 21 21 21 21 20 19 20 20 21 21 20 20 21 21 21
12 11 10 10 9 9 7 7 6 6 5 5 5 5 5 7 8 10 12 14 15 17 18 18 19 19 20 20 20 20 19 17 16 15 17 18 20 20 20 21 22 22 22
Wind_Direction
216 215 214 215 215 217 220 223 225 227 228 233 239 245 250 248 249 255 263 270 271 267 253 253 266 266 257 252 252 256 250 251 243 243 245 251 253 272 283 288 284 285 288
222 222 222 220 221 222 224 225 228 229 233 236 238 238 242 245 250 252 256 261 264 255 261 263 266 250 245 247 246 247 251 249 248 245 249 253 262 272 280 281 283 288 295
224 224 227 228 227 226 227 228 229 230 231 235 235 237 241 247 253 261 269 280 253 242 255 264 269 249 241 243 236 243 245 244 248 244 252 265 274 276 276 281 285 287 295
232 231 231 230 232 233 232 237 235 233 237 239 241 242 245 253 255 253 264 260 257 255 259 266 264 247 246 239 237 241 239 248 246 250 260 271 276 278 283 287 292 298 306
230 234 238 236 235 237 238 239 244 239 239 243 246 251 249 251 251 258 268 255 266 269 265 261 251 241 232 231 238 237 240 244 247 253 268 270 276 282 285 293 301 307 310
229 232 237 239 238 239 238 240 244 244 245 245 245 249 247 246 257 261 255 254 262 259 254 246 238 229 232 230 236 239 237 241 249 265 263 268 276 282 289 299 306 310 318
229 232 232 234 237 239 242 244 245 246 249 252 253 254 257 260 253 255 260 256 263 255 247 233 229 225 221 226 235 237 236 250 261 261 264 269 275 283 293 302 304 304 307
233 231 232 233 234 238 240 242 246 249 251 253 255 260 259 253 254 250 258 262 250 240 229 224 223 219 221 230 231 233 246 255 252 261 266 273 281 288 295 300 302 306 306
232 232 233 235 235 235 238 242 245 250 254 256 260 258 252 251 252 260 257 244 224 218 215 213 213 218 223 223 232 246 254 259 267 272 275 280 286 293 295 301 306 304 306
232 233 231 232 236 238 240 245 253 254 254 252 246 249 253 253 248 245 238 223 214 203 204 207 214 217 222 237 253 255 257 263 268 273 277 282 285 286 293 299 297 298 302
227 231 233 234 234 237 241 247 247 248 253 253 248 243 237 236 228 218 210 210 208 208 204 207 215 228 240 251 255 258 261 268 271 277 281 285 287 291 295 294 291 295 293
224 223 224 227 227 224 229 231 235 235 242 241 239 228 215 206 202 190 190 195 197 201 201 210 228 246 257 262 262 264 270 277 283 287 290 291 292 291 291 291 292 289 288
213 201 199 197 206 219 236 238 235 228 236 234 220 201 188 186 184 183 188 187 193 194 203 218 236 250 261 268 274 281 287 286 291 291 290 291 294 293 298 294 292 294 289
187 187 182 189 203 222 229 232 232 230 230 220 202 192 183 179 183 182 185 189 198 202 207 225 247 263 269 273 281 284 289 294 290 289 291 293 296 297 298 299 299 297 296
191 187 185 192 202 204 212 218 219 218 219 211 200 196 191 185 185 188 191 191 190 189 219 266 273 273 275 278 277 280 286 285 286 289 293 292 294 295 296 297 298 298 296
180 177 174 190 200 197 196 180 169 177 179 190 197 197 190 198 201 189 198 216 255 272 267 264 266 266 265 268 275 281 281 281 285 287 287 289 292 294 295 295 297 296 295
175 174 182 183 177 173 170 170 169 168 180 180 182 185 148 149 149 187 248 268 276 284 272 258 263 271 276 278 278 278 281 286 290 293 294 294 293 294 295 295 297 296 296
179 183 187 179 179 177 171 157 147 140 135 120 120 134 149 189 240 273 288 288 277 272 279 287 290 288 283 280 281 285 289 292 295 296 295 295 293 294 293 293 295 293 295
196 179 166 155 149 144 133 124 120 116 114 116 117 115 70 351 326 306 294 288 292 297 297 295 291 289 287 287 289 292 296 298 299 299 297 295 293 290 289 291 292 292 295
129 132 133 125 122 123 121 119 114 113 116 116 117 112 118 267 276 278 281 285 290 291 290 291 292 290 289 292 295 297 299 300 302 302 298 293 291 289 289 291 291 292 292
111 112 115 117 116 114 111 108 108 111 116 125 137 164 201 235 254 273 288 294 297 293 291 289 289 289 290 292 294 295 296 296 298 298 296 291 288 288 287 286 286 287 288
107 108 106 103 105 107 106 110 114 119 124 133 143 165 201 238 275 293 299 300 294 290 289 288 289 291 293 295 296 297 298 298 298 298 294 291 290 288 287 286 288 289 289
96 98 98 100 101 101 107 107 110 116 121 127 135 154 290 303 300 300 299 297 296 295 295 296 297 299 299 300 301 300 299 298 297 296 294 290 287 287 286 285 287 288 289
85 89 91 94 95 95 94 95 98 98 93 80 50 3 337 327 321 316 310 307 305 305 305 306 305 305 305 304 303 303 300 298 295 293 290 288 290 293 294 291 289 291 296
79 81 84 87 87 83 80 77 70 65 52 35 15 354 340 330 323 318 313 310 309 309 310 310 310 310 310 309 308 305 302 299 296 293 291 292 294 297 296 294 298 300 299
77 77 75 73 71 71 68 65 58 51 43 35 23 9 352 338 330 324 320 317 316 315 314 313 312 311 310 310 309 307 305 301 297 294 293 295 298 298 296 297 300 301 300
Height
1453 1457 1461 1465 1470 1475 1479 1483 1487 1492 1495 1499 1502 1506 1510 1513 1516 1518 1519 1519 1518 1520 1520 1519 1521 1521 1523 1524 1526 1528 1528 1530 1530 1531 1534 1535 1536 1534 1534 1532 1531 1531 1530
1447 1452 1455 1459 1463 1466 1469 1473 1478 1482 1487 1490 1495 1498 1502 1505 1507 1508 1509 1509 1508 1508 1510 1511 1510 1512 1515 1517 1518 1519 1522 1522 1523 1524 1526 1527 1529 1525 1527 1526 1525 1523 1522
1440 1444 1447 1451 1455 1458 1462 1466 1470 1474 1477 1482 1487 1490 1493 1496 1499 1500 1500 1497 1492 1496 1502 1503 1503 1504 1505 1508 1511 1512 1513 1514 1515 1517 1518 1519 1520 1517 1518 1518 1518 1517 1516
1430 1435 1438 1442 1446 1449 1455 1457 1461 1467 1471 1475 1479 1483 1485 1487 1489 1491 1492 1492 1492 1493 1494 1495 1495 1497 1499 1500 1502 1503 1506 1507 1509 1511 1510 1512 1513 1510 1510 1510 1509 1507 1506
1419 1424 1426 1432 1437 1441 1446 1449 1453 1459 1463 1467 1472 1473 1476 1476 1479 1482 1484 1484 1485 1486 1485 1485 1486 1488 1490 1492 1496 1496 1498 1500 1502 1504 1503 1505 1505 1504 1502 1501 1499 1497 1496
1413 1414 1419 1424 1428 1430 1436 1440 1444 1448 1452 1457 1459 1462 1464 1467 1469 1473 1474 1475 1476 1475 1475 1476 1477 1480 1484 1487 1489 1489 1493 1493 1496 1498 1497 1498 1498 1496 1494 1493 1491 1489 1486
1405 1408 1412 1416 1420 1423 1426 1431 1434 1438 1442 1444 1447 1451 1453 1456 1459 1462 1464 1464 1465 1466 1467 1468 1470 1473 1476 1479 1483 1483 1487 1488 1490 1492 1492 1491 1491 1488 1488 1486 1484 1481 1480
1399 1402 1406 1409 1413 1417 1420 1422 1425 1429 1433 1435 1439 1442 1445 1447 1450 1453 1454 1456 1456 1457 1460 1461 1464 1466 1471 1473 1477 1479 1481 1482 1484 1486 1486 1484 1484 1483 1480 1479 1477 1475 1474
1391 1394 1398 1403 1407 1410 1414 1417 1420 1423 1427 1429 1432 1435 1437 1440 1442 1443 1445 1446 1448 1451 1454 1456 1459 1461 1465 1469 1472 1475 1476 1477 1479 1479 1479 1478 1477 1476 1474 1473 1471 1469 1466
1382 1387 1391 1395 1399 1404 1407 1412 1416 1418 1420 1423 1425 1427 1429 1431 1432 1434 1437 1439 1442 1443 1448 1451 1456 1458 1462 1465 1468 1471 1472 1472 1473 1473 1473 1472 1471 1470 1468 1466 1465 1463 1461
1375 1379 1385 1390 1394 1398 1403 1406 1409 1412 1414 1416 1418 1419 1421 1424 1426 1429 1432 1435 1436 1440 1443 1448 1453 1455 1458 1462 1465 1466 1467 1467 1467 1468 1468 1467 1465 1464 1462 1461 1459 1457 1455
1373 1376 1380 1386 1391 1394 1398 1401 1403 1406 1408 1410 1411 1413 1416 1418 1423 1427 1431 1435 1437 1439 1442 1446 1448 1451 1455 1458 1460 1460 1461 1461 1462 1462 1461 1460 1458 1457 1455 1454 1453 1451 1448
1370 1372 1376 1381 1386 1391 1395 1397 1399 1401 1404 1405 1407 1410 1412 1416 1420 1424 1429 1431 1437 1438 1441 1443 1446 1449 1451 1452 1454 1455 1456 1456 1456 1455 1454 1453 1451 1450 1448 1447 1445 1442 1439
1369 1372 1372 1376 1380 1386 1390 1393 1395 1398 1399 1402 1404 1407 1412 1416 1418 1422 1426 1430 1432 1435 1438 1441 1443 1446 1448 1449 1451 1451 1451 1451 1450 1449 1448 1446 1444 1443 1441 1439 1437 1434 1430
1370 1372 1374 1375 1380 1383 1386 1390 1393 1396 1400 1402 1405 1408 1411 1414 1419 1421 1423 1426 1429 1432 1436 1439 1441 1443 1444 1445 1446 1446 1446 1445 1445 1443 1441 1439 1437 1435 1433 1431 1428 1426 1422
1369 1371 1372 1376 1381 1381 1383 1386 1392 1395 1399 1405 1409 1412 1414 1417 1417 1420 1424 1426 1428 1431 1433 1435 1437 1438 1439 1440 1440 1440 1439 1439 1438 1436 1434 1432 1430 1428 1425 1423 1421 1418 1415
1366 1366 1372 1376 1378 1382 1384 1386 1388 1394 1398 1403 1407 1412 1415 1417 1419 1421 1423 1425 1426 1428 1431 1433 1433 1434 1435 1435 1435 1435 1434 1432 1431 1429 1427 1425 1423 1421 1419 1416 1414 1412 1409
1363 1365 1372 1373 1377 1382 1386 1388 1392 1395 1398 1404 1408 1411 1414 1416 1417 1419 1422 1424 1426 1427 1428 1429 1430 1431 1431 1431 1430 1429 1428 1426 1424 1422 1421 1418 1416 1414 1412 1409 1407 1405 1402
1365 1368 1371 1375 1377 1384 1389 1392 1396 1399 1403 1406 1408 1411 1414 1416 1418 1420 1422 1424 1425 1425 1426 1426 1427 1427 1427 1426 1425 1424 1422 1420 1418 1416 1413 1411 1409 1407 1405 1403 1401 1399 1396
1367 1371 1372 1378 1384 1388 1390 1395 1397 1401 1404 1407 1409 1412 1415 1417 1418 1420 1421 1422 1422 1423 1423 1423 1423 1423 1422 1421 1420 1418 1416 1414 1412 1409 1407 1405 1403 1401 1399 1397 1396 1394 1392
1375 1380 1382 1382 1387 1392 1394 1396 1400 1402 1405 1407 1409 1412 1414 1415 1417 1418 1419 1419 1420 1420 1420 1420 1420 1418 1417 1416 1414 1412 1410 1408 1405 1403 1401 1398 1396 1394 1393 1391 1390 1388 1385
1383 1387 1390 1389 1392 1396 1397 1400 1402 1404 1406 1408 1410 1412 1413 1414 1414 1415 1416 1416 1417 1417 1416 1416 1414 1413 1411 1410 1407 1405 1402 1400 1398 1395 1393 1391 1390 1388 1388 1387 1385 1384 1382
1392 1392 1394 1395 1397 1398 1401 1402 1404 1407 1407 1409 1410 1411 1412 1412 1412 1412 1412 1413 1413 1413 1412 1410 1409 1407 1405 1403 1400 1397 1394 1392 1391 1389 1387 1385 1384 1383 1382 1380 1378 1377 1375
1396 1398 1399 1399 1400 1402 1404 1405 1407 1408 1408 1409 1409 1410 1410 1410 1409 1409 1409 1409 1408 1407 1406 1404 1402 1400 1398 1395 1393 1390 1388 1386 1384 1382 1381 1380 1378 1377 1376 1374 1372 1371 1368
1401 1402 1403 1403 1403 1403 1405 1409 1410 1409 1409 1408 1408 1408 1407 1407 1406 1406 1405 1405 1404 1403 1401 1399 1396 1394 1391 1389 1387 1385 1382 1380 1378 1376 1375 1374 1373 1371 1370 1368 1366 1364 1362
1402 1403 1405 1406 1406 1407 1409 1409 1411 1410 1410 1409 1407 1406 1405 1405 1404 1404 1403 1402 1400 1398 1396 1394 1391 1389 1386 1383 1381 1379 1377 1375 1373 1372 1371 1369 1367 1365 1364 1362 1360 1358 1355